Tracking 19575 objects as of 18-Feb-2019
HD Live streaming from Space Station
objects crossing your sky now

COSMOS 733

Track COSMOS 733 now!
10-day predictions
COSMOS 733 is classified as:


NORAD ID: 7822
Int'l Code: 1975-045B
Perigee: 1,476.7 km
Apogee: 1,560.9 km
Inclination: 74.0 °
Period: 116.2 minutes
Semi major axis: 7889 km
RCS: 0.717 m2 (medium)
Launch date: May 28, 1975
Source: Commonwealth of Independent States (former USSR) (CIS)
Launch site: PLESETSK MISSILE AND SPACE COMPLEX (PKMTR)
aabbcc
Your satellite tracking list
Your tracking list is empty




NASA's NSSDC Master Catalog

Two Line Element Set (TLE):
1  7822U 75045B   19049.24075098 -.00000020  00000-0 -32855-4 0  9999
2  7822  74.0210 342.8417 0053374 177.2991 294.7859 12.38803374977817
Source of the keplerian elements: AFSPC